World > North America > United States > Texas > Rockdale   City of Rockdale, Texas

Rockdale, TX Hourly Weather Updates

Feedback E-mail the Weather

Quick Clicks

Rockdale, TX Weather Maps

°F °C°F °C
Rockdale Weather Map
UTC Time: 4/14/2024, 05:22
Your Time:

Rockdale, TX Regional Weather

Expires:202404140600;;709145
ASUS44 KFWD 140515
RWRTX 
NORTH TEXAS HOURLY WEATHER ROUNDUP
NATIONAL WEATHER SERVICE FORT WORTH TX
1200 AM CDT SUN APR 14 2024

NOTE: "FAIR" INDICATES FEW OR NO CLOUDS BELOW 12,000 FEET WITH NO
SIGNIFICANT WEATHER AND/OR OBSTRUCTIONS TO VISIBILITY.


TXZ143>147-156>162-174-175-140600-
CENTRAL TEXAS
  
CITY           SKY/WX    TMP DP  RH WIND       PRES   REMARKS
WACO           FAIR      67  56  67 S16G24    30.06F                  
WACO-MCGREGOR  FAIR      65  57  75 S13       30.08F                  
HILLSBORO      FAIR      66  56  70 S15       30.06F                  
CORSICANA      FAIR      68  55  63 S13       30.10R                  
MEXIA          FAIR      67  57  69 S13G21    30.09S                  
HEARNE         FAIR      66  59  77 S5        30.13S                  
CAMERON        MOCLDY    66  59  76 S8        30.11F                  
TEMPLE         FAIR      66  57  72 S18G26    30.08F                  
KILLEEN        FAIR      69  60  74 SE15      30.07S                  
KILLEEN-SKYLRK FAIR      67  59  75 S17       30.08F                  
FORT CAVAZOS   FAIR      67  59  74 S13       30.08S                  
GATESVILLE     FAIR      68  63  83 SE10      30.07S                  
HAMILTON       FAIR      68  59  73 S17G23    30.05S                  
$$


SKY/WX - Weather  TMP - Temperature  DP - Dew Point  RH - Humidity
WIND - Wind Direction/Speed PRES - Barometric Pressure VSB - Visibility
WCI - Wind Chill Index E13G22 Wind - East Wind 13 mph/Gusts of 22 mph

Trending Headlines

Trending Entertainment Headlines

Rockdale Radar Loop

Use the map search tool if you want to place a location marker on the radar map...

Rockdale Quick Facts

National Two Day Weather Forecast


E-mail the Rockdale Weather Forecast

Voice your opinion or tell us about page issues...